Cairo, Egypt

1:37 PM EET on February 24, 2017 (GMT +0200)
Cairo International

Weather History for HECA - December, 2013

Change the Weather History Date:

Monday, December 9, 2013

  Actual Average Record
Temperature  
Mean Temperature 58 °F -  
Max Temperature 63 °F 65 °F 73 °F (1998)
Min Temperature 52 °F 49 °F 50 °F (2007)
Degree Days  
Heating Degree Days 8    
Growing Degree Days 8 (Base 50)    
Moisture  
Dew Point 43 °F    
Average Humidity 56    
Maximum Humidity 72    
Minimum Humidity 33    
Precipitation  
Precipitation 0.00 in 0.01 in - ()
Sea Level Pressure  
Sea Level Pressure 30.25 in    
Wind  
Wind Speed 6 mph ()    
Max Wind Speed 13 mph    
Max Gust Speed -    
Visibility 5.0 miles    
Events      
Averages and records for this station are not official NWS values.
T = Trace of Precipitation, MM = Missing Value Source: Averaged Metar Reports

Daily Weather History Graph

Daily Weather History Graph

Search for Another Location

Airport or City:

Trip Planner

Search our weather history database for the weather conditions in past years. The results will help you decide how hot, cold, wet, or windy it might be!

Date:

Astronomy

Dec. 09, 2013 Rise Set
Actual Time 6:38 AM EET 4:54 PM EET
Civil Twilight 6:12 AM EET 5:20 PM EET
Nautical Twilight 5:42 AM EET 5:50 PM EET
Astronomical Twilight 5:13 AM EET 6:19 PM EET
Moon 11:44 AM EET (12/9) No Moon Set
Length of Visible Light 11h 08m
Length of Day
10h 15m
Waxing Crescent, 47% of the Moon is Illuminated
Dec 9
Waxing Crescent
Dec 9
First Quarter
Dec 17
Full
Dec 25
Last Quarter
Jan 1
New

Hourly Weather History & Observations

Time (EET) Temp. Dew Point Humidity Pressure Visibility Wind Dir Wind Speed Gust Speed Precip Events Conditions
12:00 AM 59.0 °F 46.4 °F 63% 30.24 in - NNW 9.2 mph - N/A   Clear
12:30 AM 59.0 °F 46.4 °F 63% 30.24 in - NNW 9.2 mph - N/A   Clear
1:00 AM 57.2 °F 46.4 °F 67% 30.24 in - NNW 6.9 mph - N/A   Clear
1:30 AM 57.2 °F 46.4 °F 67% 30.24 in - NNW 6.9 mph - N/A   Clear
2:00 AM 57 °F 46 °F 56% 30.26 in 6 mi NNW 5.8 mph - -  
2:00 AM 57.2 °F 46.4 °F 67% 30.24 in - NNW 5.8 mph - N/A   Clear
2:30 AM 57.2 °F 46.4 °F 67% 30.24 in - NNW 6.9 mph - N/A   Clear
3:00 AM 55.4 °F 44.6 °F 67% 30.24 in - North 4.6 mph - N/A   Clear
3:30 AM 55.4 °F 44.6 °F 67% 30.24 in - North 4.6 mph - N/A   Clear
4:00 AM 53.6 °F 44.6 °F 72% 30.24 in 3.7 mi Calm Calm - N/A   Unknown
4:30 AM 53.6 °F 44.6 °F 72% 30.24 in 3.7 mi NNE 3.5 mph - N/A   Unknown
5:00 AM 53 °F 44 °F 62% 30.25 in 4 mi Calm Calm - -   Haze
5:00 AM 53.6 °F 44.6 °F 72% 30.24 in 3.7 mi Calm Calm - N/A   Unknown
5:30 AM 53.6 °F 44.6 °F 72% 30.24 in 3.7 mi Calm Calm - N/A   Unknown
6:00 AM 55.4 °F 44.6 °F 67% 30.24 in 3.7 mi Calm Calm - N/A   Unknown
6:30 AM 55.4 °F 44.6 °F 67% 30.24 in 3.7 mi Calm Calm - N/A   Scattered Clouds
7:00 AM 55.4 °F 44.6 °F 67% 30.24 in 3.7 mi NNW 3.5 mph - N/A   Scattered Clouds
7:30 AM 57.2 °F 42.8 °F 59% 30.27 in 3.7 mi NNW 3.5 mph - N/A   Mostly Cloudy
8:00 AM 57 °F 44 °F 52% 30.28 in 4 mi NNW 4.6 mph - -   Haze
8:00 AM 57.2 °F 44.6 °F 63% 30.27 in 3.7 mi NNW 4.6 mph - N/A   Scattered Clouds
8:30 AM 57.2 °F 42.8 °F 59% 30.27 in 3.7 mi NNW 4.6 mph - N/A   Scattered Clouds
9:00 AM 57.2 °F 42.8 °F 59% 30.30 in 3.7 mi NNW 4.6 mph - N/A   Mostly Cloudy
9:30 AM 59.0 °F 44.6 °F 59% 30.30 in 3.7 mi NNW 4.6 mph - N/A   Mostly Cloudy
10:30 AM 60.8 °F 42.8 °F 52% 30.30 in 3.7 mi NNW 4.6 mph - N/A   Mostly Cloudy
11:00 AM 60 °F 43 °F 43% 30.30 in 6 mi NNW 5.8 mph - -   Mostly Cloudy
12:00 PM 62.6 °F 42.8 °F 48% 30.27 in 6.2 mi NNW 10.4 mph - N/A   Mostly Cloudy
12:30 PM 62.6 °F 42.8 °F 48% 30.24 in 6.2 mi NW 10.4 mph - N/A   Scattered Clouds
1:00 PM 62.6 °F 44.6 °F 52% 30.24 in 6.2 mi NNW 9.2 mph - N/A   Scattered Clouds
1:30 PM 62.6 °F 41.0 °F 45% 30.21 in 6.2 mi NNW 11.5 mph - N/A   Scattered Clouds
2:00 PM 63 °F 42 °F 34% 30.23 in 6 mi North 12.7 mph - -   Scattered Clouds
2:00 PM 62.6 °F 41.0 °F 45% 30.21 in 6.2 mi North 12.7 mph - N/A   Scattered Clouds
2:30 PM 62.6 °F 39.2 °F 42% 30.21 in 6.2 mi NNW 8.1 mph - N/A   Scattered Clouds
3:00 PM 64.4 °F 39.2 °F 40% 30.21 in 6.2 mi North 12.7 mph - N/A   Scattered Clouds
4:00 PM 62.6 °F 39.2 °F 42% 30.21 in 6.2 mi North 8.1 mph - N/A   Scattered Clouds
4:30 PM 62.6 °F 41.0 °F 45% 30.21 in 6.2 mi NNW 12.7 mph - N/A   Scattered Clouds
5:00 PM 62 °F 40 °F 33% 30.24 in 6 mi NNW 10.4 mph - -   Partly Cloudy
5:00 PM 62.6 °F 41.0 °F 45% 30.21 in 6.2 mi NNW 10.4 mph - N/A   Scattered Clouds
8:00 PM 58 °F 42 °F 45% 30.27 in 6 mi NNW 9.2 mph - -  
11:00 PM 56 °F 41 °F 46% 30.27 in 6 mi Calm Calm - -